KORONAS-FOTON (33504 NORAD) Tracking and Keplerian Element Data

This shows tracking and keplerian element data for the satellite.

Feedback or suggestion? Click here.




ElementValue
Catalog33504
NameKORONAS-FOTON
Epoch Orbit88443
Epoch Day34.86233448
Epoch Year2025
RAAN327.1546
Inclination82.4369
Eccentricity0.0014211
Argument of Perigee133.1571
Mean Anonmoly227.0861
Mean Motion15.33165157
Decay Rate0.0001285
L11 33504U 09003A 25034.86233448 .00012850 00000+0 39869-3 0 9992
L22 33504 82.4369 327.1546 0014211 133.1571 227.0861 15.33165157884437



Live tracking and technical data element details for KORONAS-FOTON (NORAD 33504). KORONAS-FOTON can be tracked NOW for your location showing map with azimuth and elevation plus other details from your city location.







IsCatalogInMostPopularTable: catalog: 33504, numindb: 747
Update: records affected: 1



GetName: 33504 KORONAS-FOTON

Hit Count: updated at: Mon, 17 Nov 2025 07:40:44 GMT